Location: ??????
(31.2056°N, 45.3906°E)
Time: 13:34:53
(UTC+00:00)

Cosmos 1461 - Pass Details

Date: 09 April 2020
Orbit: 506 x 660 km, 65.0° (Epoch: 05 June)

Event Time Altitude Azimuth Distance (km) Brightness Sun altitude
Rises 17:24:55 0° 332° (NNW) 2,927 7.4 -25.4°
Reaches altitude 10° 17:27:11 10° 332° (NNW) 2,034 6.4 -25.9°
Enters shadow 17:31:15 69° 324° (NW) 699 3.3 -26.6°
